Wind_Speed
13 13 14 15 17 18 18 19 21 22 23 22 21 20 20 19 19 19 19 18 18 17 17 17 17 16 16 16 16 16 16 16 16 15 14 13 12 12 12 11 11 11 11 11 10 9 7 7 7 6 6 6 6 5 5 5 4 4 4 5 5 6 6 7 8 7 7 6 7 7 7 8 8 9 9 9 9 8 7 7 6 5 5 5 5 5
12 13 14 15 16 17 19 20 21 22 21 21 20 20 19 19 19 19 18 18 18 18 18 18 17 16 16 17 16 16 16 16 16 15 14 13 12 11 11 10 10 10 10 10 10 10 8 8 8 8 8 7 7 7 7 7 6 6 6 6 6 6 7 8 8 8 8 8 8 9 9 9 9 9 8 8 7 7 6 6 5 5 4 5 5 5
13 13 14 15 16 17 19 20 20 20 19 19 19 19 19 19 19 19 18 17 17 17 17 17 16 17 17 17 17 17 17 17 16 15 14 13 12 11 10 9 8 8 9 10 10 10 9 8 8 8 8 8 9 9 9 9 9 8 8 8 8 8 9 10 10 11 11 11 11 11 10 10 9 9 8 7 6 6 6 6 6 6 5 5 5 6
13 14 15 16 16 17 19 19 19 19 18 18 18 18 18 18 18 18 18 18 17 17 17 17 17 17 18 18 18 18 17 17 16 15 14 13 12 10 9 8 8 8 9 9 10 9 9 9 9 9 9 9 10 11 11 11 11 11 11 11 11 12 12 13 13 13 13 13 12 11 11 10 9 9 8 8 7 7 7 7 7 7 6 6 6 5
13 14 15 15 16 17 18 19 19 18 17 17 17 16 17 17 18 18 18 18 17 17 18 18 19 19 19 19 19 18 17 16 16 15 14 12 11 10 9 8 8 8 9 9 9 9 9 9 9 9 10 10 11 11 12 12 13 13 12 13 13 14 14 14 14 14 13 13 12 11 10 10 10 10 9 9 8 8 7 7 7 7 7 6 6 6
12 12 13 13 15 16 17 18 18 17 17 17 16 16 16 17 17 18 18 18 18 18 19 20 20 21 21 20 18 16 16 15 15 14 13 12 10 9 9 9 9 9 9 9 9 10 9 10 10 10 10 10 11 12 12 13 13 13 13 13 14 14 14 14 14 14 13 13 12 12 12 11 11 11 11 10 10 9 9 8 7 7 7 7 7 7
10 11 11 12 13 15 16 16 17 17 16 16 16 16 17 17 18 18 18 18 19 19 20 21 21 22 22 21 18 15 14 14 14 13 12 10 10 9 9 9 10 10 10 10 10 9 9 9 9 9 10 10 11 11 12 12 12 13 13 13 13 14 14 14 14 14 14 14 13 13 13 13 12 12 12 11 11 11 10 9 8 8 7 7 7 7
10 10 10 11 12 14 14 15 16 16 16 16 16 16 18 18 19 19 19 19 19 20 21 22 22 22 22 22 19 17 14 13 13 12 11 10 9 9 10 10 10 10 10 10 10 9 9 9 9 9 9 9 10 10 11 11 12 12 13 13 13 14 14 14 14 14 14 14 13 13 13 13 13 13 12 12 12 12 11 11 10 9 8 7 6 6
10 10 11 12 13 14 13 14 15 16 16 16 16 16 18 18 19 19 19 19 20 21 23 23 23 22 22 21 20 18 15 14 13 12 11 11 10 10 9 9 10 10 10 10 10 9 9 9 8 8 8 8 8 9 10 11 12 13 13 14 13 13 13 13 13 13 13 13 13 13 13 13 13 13 13 13 13 13 12 12 12 11 10 8 7 6
12 11 11 12 13 14 13 14 15 16 17 18 18 17 17 17 18 18 18 19 21 22 23 24 24 23 21 20 19 18 16 15 14 13 13 12 12 11 10 10 9 9 10 10 10 10 9 9 9 9 9 8 8 9 10 11 13 13 13 13 13 12 12 12 12 12 12 12 12 12 12 12 13 13 13 13 13 13 13 13 12 12 12 10 9 7
11 11 11 12 13 14 14 14 15 16 18 19 19 19 18 18 17 17 16 18 20 21 22 23 23 23 21 20 19 18 17 16 15 14 14 14 14 14 12 12 11 9 9 8 8 8 9 9 10 10 9 9 9 9 11 12 13 13 13 13 12 12 12 12 11 11 11 11 12 12 12 12 13 13 13 13 13 12 12 12 12 12 12 11 10 9
10 10 11 12 13 14 14 15 15 16 17 18 17 16 17 18 18 18 17 17 19 20 21 21 22 22 21 20 19 18 17 16 16 15 15 15 15 14 14 13 12 10 9 8 8 9 9 10 10 10 10 10 10 11 12 12 13 13 13 13 12 12 12 12 11 11 11 11 11 12 12 12 12 12 12 12 12 12 12 12 12 12 12 12 11 10
10 11 11 12 12 13 13 14 14 15 16 17 15 13 14 17 19 19 17 17 19 21 21 21 20 20 20 20 19 18 17 17 16 15 15 14 15 15 14 13 12 11 10 10 10 11 11 11 12 12 12 11 12 12 13 13 13 13 12 12 12 12 12 11 11 11 11 11 11 11 11 11 11 11 11 11 11 11 11 11 11 12 12 12 12 11
10 10 10 10 10 11 12 13 13 13 15 16 16 15 15 17 19 19 17 16 18 20 21 20 19 19 19 19 19 19 18 17 16 15 15 14 14 15 14 13 13 12 12 11 11 12 12 12 12 12 12 13 13 14 14 14 13 13 12 12 11 11 11 11 10 10 10 10 10 10 10 10 10 10 10 10 10 10 10 10 11 11 11 11 11 11
9 9 8 8 8 9 11 13 13 14 14 15 16 16 15 16 18 18 17 15 16 18 19 19 18 18 18 18 18 18 18 17 17 16 15 15 14 14 14 13 13 13 13 13 13 13 13 12 12 12 12 13 14 14 14 14 13 13 12 11 11 10 10 9 9 9 9 9 9 9 9 10 10 10 9 9 9 9 9 9 9 9 9 10 10 11
10 10 8 8 9 10 12 13 13 13 13 14 16 16 14 14 16 18 17 16 16 16 16 15 13 13 15 17 18 18 18 17 17 17 16 15 15 15 14 14 14 14 14 14 14 14 14 13 13 13 13 13 14 15 15 14 14 13 12 11 11 10 9 9 9 9 8 8 8 9 9 9 10 9 9 8 8 8 8 8 8 8 8 9 9 10
10 10 10 9 9 10 12 14 14 14 14 14 15 16 15 15 16 18 18 17 16 15 15 13 9 6 8 11 15 18 18 17 17 17 17 16 16 16 15 15 14 15 15 15 15 15 15 14 14 13 13 13 14 15 15 15 14 14 13 12 12 11 10 10 9 9 9 9 9 9 9 10 10 9 8 7 7 7 8 7 7 7 7 8 8 9
10 10 10 10 10 10 12 13 14 14 14 14 15 16 16 16 16 17 18 17 16 15 14 14 11 7 5 6 10 15 19 19 18 17 17 16 16 16 16 16 15 15 15 16 16 16 16 15 15 14 14 14 14 15 15 15 15 14 14 13 13 12 11 11 10 10 9 9 9 9 10 10 10 9 8 7 7 7 7 7 6 6 7 8 8 9
9 10 11 11 11 11 11 12 13 14 14 15 15 15 15 16 16 17 18 17 17 16 15 14 14 12 8 6 8 13 17 19 19 18 17 17 17 17 17 16 16 16 16 16 16 16 16 16 15 15 15 15 15 15 15 15 15 15 14 14 13 13 12 12 11 11 10 10 10 10 10 10 9 8 7 7 7 7 7 6 6 6 7 8 8 9
8 9 10 10 11 11 11 12 13 13 13 14 14 14 15 15 16 17 18 18 18 18 17 15 15 14 13 9 8 10 13 16 18 19 19 19 18 18 18 17 17 17 17 17 17 16 16 16 15 15 15 15 15 15 15 15 15 14 14 13 13 13 12 12 12 12 11 11 10 10 10 10 9 8 7 7 7 7 7 6 6 6 7 8 9 9
6 7 7 8 9 10 10 11 12 12 12 12 12 13 15 16 17 17 18 18 18 18 18 16 15 15 15 13 10 9 10 12 15 18 19 19 19 19 19 19 18 18 18 18 17 16 16 16 15 15 15 15 15 15 15 14 14 14 13 13 12 12 12 12 12 12 11 11 10 10 10 10 9 8 8 8 8 8 7 7 7 7 8 8 9 9
2 3 3 4 6 7 8 9 9 9 9 10 11 12 14 15 16 17 18 19 19 18 17 16 16 16 16 14 12 11 10 10 13 17 18 16 16 19 20 19 19 19 19 19 18 17 16 16 15 15 15 15 14 14 14 14 14 14 13 13 13 12 12 12 12 11 11 10 10 10 10 10 9 9 9 9 8 8 8 8 7 8 8 9 9 9
1 1 2 3 4 5 5 5 5 6 6 7 9 11 12 14 15 16 18 18 18 18 18 18 18 18 17 16 15 13 11 10 11 14 15 13 13 17 19 19 19 20 20 19 18 18 17 17 16 16 15 15 15 14 14 14 14 14 14 13 13 13 12 12 11 11 10 10 10 10 10 10 10 9 9 9 9 9 9 9 8 9 9 10 10 9
2 2 3 4 5 5 5 4 4 4 5 5 7 9 10 11 12 13 14 16 17 18 18 18 17 16 16 16 15 14 12 11 11 13 15 13 13 14 16 17 18 19 20 19 19 18 18 18 17 17 16 16 15 15 15 15 15 14 14 14 13 13 13 12 11 11 10 10 10 10 10 10 10 10 10 10 10 9 9 9 9 9 9 10 10 10
3 3 3 4 4 4 4 4 4 4 4 5 6 7 9 10 10 11 11 13 15 16 16 15 13 12 13 14 14 14 13 12 12 13 16 13 12 13 14 15 16 17 18 18 18 18 18 18 17 17 16 16 16 16 16 16 15 15 15 14 14 13 13 12 12 11 11 11 11 11 11 11 11 10 10 10 10 10 10 10 10 10 9 10 10 10
4 4 4 4 3 3 3 3 3 4 4 4 5 6 8 9 10 11 11 12 13 14 13 12 11 11 12 13 13 14 14 13 13 13 15 11 9 9 11 13 13 14 15 15 16 16 16 17 17 17 16 16 16 16 16 16 16 16 15 15 14 14 13 13 12 11 11 11 11 11 11 11 11 11 11 11 11 10 10 10 10 10 10 10 10 10
5 5 4 4 3 3 3 2 2 2 3 3 4 5 6 8 10 11 11 12 13 13 13 10 8 9 11 11 11 13 14 14 14 14 15 12 8 7 9 11 12 12 13 14 14 14 15 15 16 16 16 16 16 16 16 16 16 15 15 15 14 14 13 12 12 11 11 11 11 11 11 11 11 11 11 11 11 11 10 10 10 10 10 10 10 10
6 5 5 4 4 3 2 2 2 2 2 2 3 3 4 6 8 10 11 12 12 13 13 10 8 7 8 9 10 12 14 15 15 15 14 14 9 6 8 9 10 11 11 12 13 14 14 15 15 15 16 16 16 16 15 15 15 15 15 15 14 13 12 12 11 12 12 12 12 11 11 11 11 11 11 11 11 11 11 10 10 10 10 10 10 11
5 5 5 4 4 3 3 2 1 1 2 2 3 3 3 4 6 7 8 8 10 12 13 12 10 8 8 10 10 11 12 14 15 16 15 14 10 8 9 9 9 10 9 9 10 11 13 15 16 16 16 16 16 16 15 15 14 14 14 14 13 13 12 11 11 12 12 12 12 12 11 12 12 12 11 12 12 12 11 11 10 10 10 11 11 12
5 5 4 4 4 4 3 2 1 1 2 2 2 3 3 3 3 3 4 5 8 11 13 12 12 11 8 7 6 7 9 13 15 16 16 15 12 10 10 9 10 10 9 6 4 5 8 12 14 16 17 17 16 16 15 14 13 13 13 13 12 12 12 12 12 12 12 12 12 12 12 12 12 11 11 12 12 12 12 12 11 11 12 12 12 12
4 4 4 4 4 4 3 2 2 2 2 1 1 2 3 3 2 2 1 3 5 8 11 13 14 14 11 6 3 2 4 9 12 14 15 16 15 13 11 10 10 11 10 7 4 2 2 5 8 12 15 16 16 16 15 14 13 13 12 12 13 13 13 13 13 12 12 11 11 11 11 11 11 11 11 11 12 12 12 12 12 12 13 13 13 13
4 4 4 4 4 3 3 3 3 3 2 1 1 1 2 2 2 2 2 2 3 4 7 10 12 14 14 10 7 4 3 4 7 10 12 14 14 13 13 11 11 12 13 12 8 3 1 1 3 6 10 13 15 15 15 14 13 13 13 13 13 14 14 14 13 13 12 11 11 10 10 10 10 11 11 11 12 12 12 12 12 13 14 14 14 14
3 3 3 3 3 3 3 2 2 2 2 1 1 1 1 2 2 2 2 2 2 3 4 6 9 11 13 13 12 10 7 5 5 6 9 10 11 11 13 13 13 13 14 15 13 8 4 3 2 3 5 8 11 13 13 13 13 13 13 13 14 14 14 13 13 13 12 12 12 11 11 11 11 11 11 11 12 12 12 13 13 13 14 14 14 14
2 2 2 2 2 2 2 2 2 2 2 1 1 1 2 2 3 3 2 2 2 3 4 6 7 8 10 12 13 12 11 9 8 7 8 9 9 10 11 12 13 14 15 15 14 11 6 5 5 3 3 5 7 10 11 12 13 13 13 13 14 14 14 13 12 12 12 12 12 12 12 12 13 13 13 12 12 12 13 13 13 13 14 14 14 14
1 1 1 2 2 2 2 2 2 2 3 3 3 3 3 4 4 4 4 4 4 5 5 6 7 8 8 9 10 10 10 10 10 9 9 9 9 10 10 11 12 14 15 15 14 11 6 6 6 5 4 4 6 8 10 11 12 13 13 13 14 14 13 13 12 11 11 12 12 13 13 14 14 14 14 14 14 14 14 13 13 13 14 15 15 15
2 2 2 3 3 3 3 3 4 4 4 5 5 5 5 6 6 6 6 6 6 6 7 7 8 9 10 10 11 10 10 10 10 10 10 10 10 10 9 9 10 12 13 15 14 11 7 6 7 7 5 4 4 6 8 11 12 12 13 14 14 14 13 12 12 11 11 12 13 14 14 15 15 15 15 15 15 15 15 14 14 13 13 14 15 15
4 4 4 4 4 4 5 5 5 6 6 6 7 7 7 7 8 8 8 8 7 7 8 8 8 9 10 10 11 11 12 11 11 10 10 10 10 11 10 9 9 10 11 14 15 14 11 8 7 7 7 6 4 4 6 10 12 13 14 15 15 15 14 13 12 11 11 12 13 14 15 16 16 16 16 16 16 17 17 17 16 16 15 14 14 15
5 5 5 5 5 5 5 6 6 7 7 8 8 9 9 9 9 8 8 8 8 7 7 7 8 8 8 9 10 10 11 11 11 11 10 10 10 10 11 11 10 9 9 12 14 14 13 9 7 6 6 7 7 6 6 9 12 14 15 15 15 15 15 14 13 12 12 12 12 14 15 16 17 18 18 18 18 18 18 18 18 18 17 17 16 15
7 7 6 6 6 5 5 6 6 6 7 8 9 9 10 10 10 9 9 8 8 8 7 7 7 8 8 8 8 9 9 10 10 10 10 10 10 10 11 12 11 10 9 10 11 13 13 11 9 7 6 5 6 7 8 9 11 13 15 16 16 17 17 16 15 14 13 12 13 13 15 16 17 18 19 19 19 19 19 20 20 19 19 19 18 17
6 6 6 6 5 5 5 5 5 6 7 8 9 9 10 10 10 10 9 9 8 8 8 8 8 8 8 8 8 8 9 9 9 9 9 9 10 10 11 11 12 11 10 10 11 12 13 13 12 11 9 6 5 5 7 9 10 11 13 14 16 18 18 17 16 16 14 14 13 14 14 15 16 17 18 19 20 20 21 21 21 21 20 20 20 19
5 5 5 4 4 4 4 5 5 6 6 7 8 9 10 10 10 10 10 10 10 9 9 8 9 9 9 9 9 9 9 9 9 9 9 9 9 10 10 11 12 12 12 12 12 12 13 13 14 13 13 11 8 7 7 8 9 10 12 13 15 17 17 17 17 17 16 15 14 14 14 15 15 16 17 18 19 20 21 21 21 21 21 22 22 22
5 5 4 4 4 4 5 6 6 6 6 7 7 8 9 9 10 11 11 11 11 11 10 10 10 10 10 11 11 11 11 11 10 10 9 9 9 9 10 11 12 13 13 13 14 14 14 14 14 15 15 14 12 10 9 9 10 10 11 13 14 13 13 15 16 17 16 16 16 15 15 15 16 16 17 18 18 19 20 21 21 22 23 23 23 24
6 6 6 5 5 6 6 7 7 7 7 7 7 7 8 8 9 10 11 12 12 12 11 11 11 11 11 12 12 12 12 12 12 11 11 10 10 9 10 10 11 13 13 14 15 15 16 16 16 16 16 16 15 14 12 12 12 12 12 12 12 11 7 10 14 15 16 16 16 16 16 17 17 17 17 18 19 19 20 21 22 22 23 24 24 24
8 8 8 8 8 8 9 9 9 9 9 8 8 8 8 8 9 10 11 12 12 13 12 12 12 12 12 13 13 13 13 13 13 13 12 12 11 11 11 11 11 12 13 15 15 16 16 17 18 18 18 17 16 16 15 14 14 14 15 14 14 14 12 10 11 12 14 15 15 15 16 16 16 17 18 19 20 21 21 22 23 23 24 24 25 25
11 11 11 11 11 11 11 11 11 11 11 10 10 10 9 9 9 10 10 11 12 13 13 13 12 12 12 13 14 14 14 14 14 14 14 14 13 13 12 12 12 13 14 15 16 16 16 16 17 18 18 18 18 17 16 15 15 15 16 17 17 18 18 16 14 12 13 13 14 14 14 14 14 15 16 18 20 21 22 22 23 24 24 25 25 25
13 13 13 13 13 13 14 14 13 13 13 13 12 12 12 11 11 11 11 11 12 13 13 13 13 12 11 12 12 13 13 14 14 15 15 14 14 14 13 13 13 13 14 15 16 17 17 17 17 17 17 17 18 18 19 17 16 16 16 18 19 20 21 21 20 18 17 16 15 15 14 14 14 14 16 17 18 19 21 21 22 23 24 25 25 26
15 15 15 15 15 15 15 15 15 15 15 15 14 14 14 13 13 12 12 12 12 13 13 14 14 15 14 13 13 12 12 13 13 14 14 14 13 13 13 13 13 13 14 15 16 17 18 19 19 19 17 15 15 16 18 18 18 18 18 18 18 19 20 22 23 23 23 22 21 19 18 17 17 17 17 18 18 19 20 21 21 22 23 23 24 25
16 17 17 17 17 17 17 17 17 17 17 17 16 16 15 15 15 15 14 13 13 13 14 14 15 16 16 17 17 16 14 14 14 14 14 13 13 12 12 12 12 12 13 14 15 17 18 19 20 21 20 18 16 14 15 16 17 19 19 18 18 18 19 21 23 24 24 24 23 23 21 20 20 19 19 19 19 20 22 22 22 22 22 23 23 24
17 18 18 18 18 18 18 18 18 18 18 18 18 18 17 16 16 16 16 15 14 14 14 15 15 16 16 17 18 18 17 16 16 15 15 14 13 13 13 12 12 12 13 14 15 16 18 19 21 22 23 23 21 18 16 16 17 18 19 19 19 19 20 20 21 22 23 24 23 23 22 22 21 21 20 18 18 20 22 23 24 24 24 23 24 24
19 19 19 18 18 18 18 19 19 19 19 19 19 19 19 18 17 17 17 16 16 15 15 16 16 15 15 16 17 18 18 18 17 17 17 16 16 15 14 14 13 12 12 13 13 14 15 16 19 22 24 26 26 24 21 19 18 18 19 20 21 20 20 20 21 22 22 23 22 22 21 21 21 20 20 19 19 19 20 22 24 25 25 24 24 25
18 19 19 18 18 18 18 19 19 19 19 19 19 18 19 19 18 18 18 18 17 17 17 17 17 16 15 15 16 17 18 18 18 18 18 18 18 17 16 15 14 12 10 9 8 8 8 9 11 16 21 24 26 26 25 23 20 18 18 20 21 21 21 21 21 22 22 22 22 21 20 20 20 20 20 19 18 17 17 19 22 25 25 24 24 24
Wind_Direction
254 254 255 258 260 261 264 265 264 261 257 254 251 249 247 242 236 232 228 225 225 229 236 241 239 235 237 240 240 235 229 222 218 215 212 208 206 206 207 208 209 212 215 218 219 217 210 201 195 192 188 183 181 183 189 185 174 168 172 173 174 175 176 178 181 184 187 186 185 185 185 185 187 190 193 194 195 196 198 203 207 210 215 218 208 187
253 253 252 252 252 254 258 261 259 256 254 253 252 250 247 239 232 228 226 226 230 236 242 244 241 236 233 233 230 224 218 213 211 209 207 204 201 201 205 208 212 214 216 218 218 216 211 202 193 189 186 183 181 181 182 178 175 176 182 185 186 185 184 184 183 182 180 178 178 180 181 184 188 192 195 195 193 193 194 196 196 198 203 208 199 182
259 257 256 256 253 251 252 254 254 253 252 252 252 249 242 234 228 225 225 228 234 238 239 236 233 229 226 222 217 211 207 205 205 204 203 201 200 201 203 204 207 210 212 213 214 213 210 203 196 190 187 183 179 176 173 171 170 172 179 184 185 183 181 178 173 170 169 170 172 174 179 183 188 191 191 190 187 186 189 190 191 192 195 198 192 181
266 264 262 262 259 253 249 248 248 249 249 249 248 243 236 229 226 226 229 232 234 234 230 225 222 219 216 210 204 200 198 199 200 201 200 200 200 201 202 201 200 199 201 203 204 203 200 195 191 188 186 183 178 174 173 172 170 169 173 176 179 179 179 177 174 172 171 173 175 178 182 186 188 189 189 188 188 189 192 195 197 198 197 196 191 184
264 261 258 257 251 247 245 243 242 243 243 242 239 233 228 225 226 228 231 233 231 226 220 216 212 208 205 200 195 193 193 195 197 198 199 200 201 202 202 199 195 192 192 193 193 191 189 188 187 186 186 183 178 173 171 170 170 170 172 174 176 177 179 181 182 182 183 185 188 191 193 195 195 195 195 195 195 197 200 203 205 206 205 204 199 195
263 256 252 247 242 240 240 239 237 235 232 230 227 224 221 222 225 227 228 227 224 219 214 209 205 201 198 194 189 187 190 192 195 198 200 202 203 203 201 198 193 190 190 188 188 187 185 185 186 186 186 183 179 174 171 171 172 174 175 176 176 178 181 186 190 194 198 202 205 208 208 208 208 208 208 207 207 208 210 211 213 215 216 216 214 210
268 256 248 242 240 240 239 236 232 227 219 214 213 214 217 220 222 224 224 223 220 215 211 206 202 198 195 192 186 181 182 188 193 197 200 202 204 203 199 195 193 191 191 190 189 187 184 184 184 184 185 184 182 178 176 176 177 179 180 180 180 182 186 191 198 204 209 213 215 217 218 218 218 218 218 219 220 221 222 222 222 223 224 226 226 224
267 253 242 233 233 235 234 232 228 221 213 207 205 207 210 215 218 220 221 220 216 212 207 202 198 195 193 191 186 181 179 184 190 195 198 200 200 199 196 194 193 193 192 191 189 186 183 182 181 182 185 187 187 187 186 185 185 185 186 186 187 189 193 198 204 209 213 216 219 221 222 223 225 226 228 230 232 234 235 235 233 231 230 231 232 233
261 244 235 230 226 222 220 223 223 219 213 209 207 205 206 208 211 214 215 213 210 207 202 197 194 192 191 191 189 187 186 189 194 197 197 195 193 192 192 192 193 194 193 192 189 187 183 182 182 183 187 190 194 197 198 198 197 195 195 195 196 199 202 205 209 213 216 219 222 225 227 230 233 236 238 241 243 245 246 245 243 239 235 233 232 232
260 243 230 228 226 220 213 212 215 216 213 210 211 211 210 206 204 204 204 204 204 202 198 194 191 189 189 190 191 190 191 194 198 200 198 194 191 189 188 187 189 192 195 196 196 193 189 186 186 187 189 191 196 200 203 205 206 205 205 206 208 210 212 215 218 221 224 227 230 233 236 240 243 246 248 250 252 253 252 251 249 245 239 234 230 226
253 240 227 221 221 222 218 214 214 214 211 210 211 214 214 210 204 198 192 194 196 196 194 193 192 190 187 189 191 194 197 198 201 203 202 198 194 190 188 187 186 187 192 200 203 201 196 194 193 192 192 193 196 200 203 208 210 212 214 216 218 220 223 225 228 231 234 237 240 243 246 248 251 252 254 255 255 255 254 252 250 246 242 236 230 223
241 230 223 218 215 216 217 218 217 213 209 206 208 212 213 211 208 202 194 192 191 191 191 192 193 192 190 190 192 197 201 204 205 205 205 203 199 195 192 192 191 190 190 194 196 195 195 195 194 193 193 193 196 200 203 207 212 217 219 221 223 226 230 233 236 239 243 246 249 251 252 254 255 256 256 257 257 256 254 252 249 246 242 237 230 223
237 227 219 216 213 212 212 212 210 207 204 204 206 209 211 210 208 203 198 195 193 192 191 191 191 193 195 196 197 198 202 205 207 208 206 204 201 198 197 199 203 205 204 204 201 199 197 195 194 192 192 192 195 199 204 208 214 219 222 225 227 231 234 238 242 245 249 251 254 255 256 257 258 258 259 260 259 257 254 252 248 245 240 236 230 221
230 221 214 210 210 210 210 208 204 201 204 207 209 212 213 212 207 201 198 197 197 195 193 191 191 192 195 197 200 202 203 205 207 207 206 204 203 202 202 207 213 218 218 219 217 213 207 204 201 199 196 196 198 202 206 210 215 219 224 228 232 235 239 243 246 249 251 253 255 257 259 260 262 264 265 265 262 259 255 251 247 242 237 232 226 218
221 212 206 209 211 212 212 210 209 209 211 213 213 214 215 212 206 200 197 196 197 196 194 193 193 195 196 197 200 202 204 206 208 208 208 209 210 210 212 216 222 227 228 227 225 221 218 215 212 209 207 206 207 210 213 216 219 223 227 231 235 238 241 244 246 249 250 252 254 257 260 264 267 270 270 267 261 256 252 248 243 237 230 226 220 212
224 214 208 213 217 219 220 218 217 217 219 220 218 216 215 210 205 201 198 197 196 194 191 190 192 197 202 204 204 203 204 207 211 213 214 217 220 222 222 224 228 231 232 230 226 223 222 220 219 218 216 216 217 219 221 224 227 230 231 233 236 238 240 242 244 245 247 248 251 254 258 263 268 271 270 262 253 248 246 242 235 226 220 216 211 204
230 221 217 220 223 226 228 227 223 221 223 224 223 220 216 211 206 202 199 199 196 191 190 188 186 192 208 213 212 209 208 208 213 217 219 220 225 229 229 229 230 230 229 228 226 224 223 221 221 222 222 222 223 224 225 228 231 233 235 236 238 239 240 240 241 241 243 245 248 250 254 260 266 269 265 253 243 239 238 233 225 217 212 209 205 199
237 231 229 228 230 232 234 231 228 228 229 227 225 222 219 216 210 205 201 200 196 193 194 197 197 192 188 202 216 218 214 212 214 218 220 221 224 228 230 230 229 228 227 225 225 225 225 225 225 225 226 227 227 228 229 232 233 235 238 239 240 240 240 240 240 240 241 242 245 247 251 256 262 264 258 245 236 233 230 224 216 212 210 205 201 197
251 247 242 238 239 242 242 239 236 234 232 230 227 222 216 215 212 208 204 202 200 198 198 200 205 206 201 199 212 218 219 217 218 219 219 220 222 226 228 227 226 225 224 224 224 225 226 228 229 231 232 232 232 233 234 236 237 239 240 240 241 241 241 241 241 241 241 241 242 244 247 251 256 257 249 238 231 227 222 217 213 210 206 200 197 195
269 265 258 254 252 252 251 251 252 250 244 242 236 225 215 214 212 209 207 206 205 204 203 203 206 210 212 215 220 222 221 221 221 221 221 221 224 226 227 225 223 222 222 223 224 225 227 229 232 234 236 237 237 237 238 239 240 240 240 240 240 241 242 243 244 243 242 240 239 240 242 245 247 246 238 231 226 222 217 212 209 204 197 195 194 194
284 283 283 281 275 268 266 267 269 267 262 255 242 227 218 215 212 210 210 209 208 208 209 208 210 212 214 219 224 227 225 223 220 220 221 222 224 227 228 226 224 223 222 223 224 225 228 231 234 237 239 240 240 239 239 239 239 239 239 239 240 242 244 245 245 244 242 238 236 236 237 238 238 236 229 225 221 218 213 209 203 197 193 191 191 192
297 308 304 296 289 285 283 285 282 276 271 259 240 225 220 218 214 212 213 212 210 209 210 211 213 216 217 219 223 228 230 229 224 220 219 218 222 227 228 226 225 225 225 225 226 228 230 233 237 240 242 242 241 240 239 238 238 238 239 240 241 243 245 247 246 243 239 235 232 231 230 231 230 228 223 221 219 215 210 205 201 196 192 190 189 189
276 296 294 286 280 274 272 273 273 271 267 258 243 235 235 231 225 221 221 218 215 213 214 215 218 222 222 222 223 227 230 229 226 222 216 214 220 226 228 227 226 227 228 229 230 232 235 238 241 243 244 244 243 241 240 239 239 239 240 241 243 244 246 246 244 240 235 231 229 228 227 226 225 223 221 219 217 214 209 204 200 197 194 192 190 189
333 328 322 312 297 282 267 254 248 248 248 247 245 244 245 243 240 236 233 228 223 221 221 221 223 225 225 225 224 225 227 224 220 216 213 215 221 226 228 227 227 229 232 233 234 236 239 242 244 245 246 245 243 241 240 240 240 241 241 242 243 244 244 243 240 235 230 228 227 225 224 223 222 221 219 218 216 214 208 204 201 199 197 195 193 191
353 350 344 334 321 305 285 263 248 240 237 236 235 235 235 237 238 238 236 233 228 225 222 220 218 220 225 224 222 222 223 220 215 211 210 217 225 229 231 229 229 231 235 237 238 240 242 244 246 246 245 244 243 242 241 241 241 242 242 242 243 243 242 241 237 231 227 226 225 224 222 221 221 219 218 217 216 214 209 205 203 202 201 201 199 197
353 349 344 337 327 315 298 275 257 245 237 231 228 227 227 229 230 229 226 223 220 216 212 207 208 213 219 220 220 221 222 218 214 211 208 213 222 230 234 233 232 233 237 240 241 242 243 245 246 245 244 243 242 242 242 242 243 242 242 242 242 241 240 238 233 228 224 224 223 222 221 220 220 219 217 216 216 214 212 208 206 205 205 205 204 204
359 352 344 333 320 308 296 279 261 244 232 221 216 216 219 223 223 218 212 213 213 209 200 196 202 212 215 217 219 222 223 221 217 214 211 212 219 231 233 233 232 233 237 241 244 245 245 245 245 244 243 242 242 242 242 242 242 242 241 240 240 239 237 234 229 224 222 222 222 221 220 219 219 218 217 216 215 216 215 211 208 206 206 206 207 207
6 360 350 336 320 305 291 277 257 233 210 195 187 192 206 219 218 214 213 217 216 208 200 199 200 204 210 214 218 223 226 225 222 218 215 214 220 235 231 229 228 230 234 241 247 250 249 247 246 244 242 241 241 240 240 240 240 239 239 238 237 235 233 229 225 221 220 219 219 219 219 219 219 218 217 215 215 214 214 212 210 208 207 207 209 210
9 6 358 347 333 319 303 283 260 227 199 181 172 173 188 211 224 231 237 234 221 209 202 204 203 203 208 215 221 227 231 230 227 223 220 216 222 234 231 226 226 227 229 238 251 256 252 249 246 242 240 240 239 238 238 238 238 238 238 237 234 230 225 222 220 219 218 218 217 217 218 219 218 216 216 214 213 212 212 212 210 209 210 211 213 214
9 9 7 2 356 346 331 312 281 248 226 199 178 171 179 195 218 251 272 255 232 216 207 208 208 207 208 213 224 236 241 236 231 227 223 218 220 229 233 228 226 225 223 224 241 255 252 248 243 238 236 236 236 236 236 236 236 236 235 234 230 225 218 214 213 214 215 216 216 217 218 218 216 214 214 212 211 210 210 210 209 209 212 214 216 217
10 11 13 15 16 12 1 348 325 305 286 260 207 184 185 195 203 212 231 247 242 231 221 218 216 213 208 202 196 229 243 235 230 228 225 219 221 229 234 228 226 226 224 209 200 220 249 243 237 233 230 230 231 232 233 233 233 232 231 228 224 220 216 212 210 209 210 212 215 217 219 218 215 212 212 210 209 209 209 209 209 212 216 216 217 219
12 12 14 17 21 22 17 8 355 343 337 331 295 223 210 213 220 226 224 224 231 240 239 235 230 224 218 214 212 219 241 242 232 226 224 218 221 230 235 230 226 226 229 219 215 218 243 228 238 234 226 225 226 228 229 230 229 228 226 223 219 217 216 215 214 212 210 209 209 211 213 214 213 212 211 210 209 208 209 208 210 214 220 220 220 221
9 10 10 12 14 16 18 16 10 6 2 355 332 273 245 239 242 245 241 223 207 215 234 245 244 238 232 230 231 236 248 257 248 232 223 218 220 228 235 234 230 227 228 225 225 230 242 247 258 253 234 227 225 225 225 225 225 224 221 218 216 215 216 216 217 217 215 212 208 205 204 205 206 207 208 209 209 209 210 209 211 216 223 225 225 224
356 356 353 353 353 356 356 353 351 343 334 318 297 278 265 261 262 265 266 256 235 225 229 236 242 243 240 239 240 245 251 254 251 242 231 222 221 227 235 236 234 229 224 222 221 225 241 249 252 252 245 236 229 225 222 221 221 220 217 215 214 214 215 215 217 219 219 216 212 207 203 202 202 202 203 205 207 210 212 212 213 218 225 229 230 229
312 308 301 300 297 295 295 294 295 295 290 285 279 274 273 275 277 280 281 278 269 259 252 249 247 246 245 243 244 247 252 252 249 244 239 230 227 231 238 240 239 233 224 221 219 219 233 241 240 235 231 231 233 230 224 220 217 216 214 213 212 213 214 214 216 218 219 218 215 212 209 206 204 204 204 204 205 207 209 211 213 218 226 232 234 233
268 263 261 265 267 265 265 266 270 272 273 274 273 274 275 278 280 282 282 280 277 273 268 263 258 255 253 251 249 249 250 250 248 244 241 236 234 235 238 242 243 237 227 222 219 219 224 230 231 227 220 213 221 229 228 223 218 215 213 212 212 213 213 214 216 219 221 221 219 217 214 211 209 208 208 209 208 208 208 209 210 213 222 232 236 237
259 257 256 258 258 258 259 262 264 266 267 268 269 272 274 276 278 280 281 280 278 276 273 270 267 263 259 256 253 251 250 249 248 246 242 239 236 234 233 240 244 240 230 224 220 219 220 225 225 222 218 210 207 214 222 221 218 216 214 214 214 215 216 217 219 223 226 226 224 221 218 216 214 213 213 213 214 213 213 212 210 208 211 221 230 235
255 257 258 259 260 260 261 263 264 266 267 267 268 269 272 274 276 277 278 278 277 276 275 274 271 268 264 260 256 253 251 249 249 247 244 241 237 233 231 235 239 238 233 230 227 225 222 221 217 213 218 220 221 223 223 219 217 217 218 219 219 220 221 223 226 230 232 232 229 225 222 220 218 217 217 217 218 218 219 219 217 214 212 214 221 228
253 257 260 262 264 267 269 268 267 268 268 267 267 267 269 271 272 273 273 273 273 273 273 273 271 269 265 262 259 256 253 251 249 247 245 242 239 234 231 233 234 234 232 229 229 229 227 225 221 218 217 223 228 231 233 228 222 220 221 223 224 226 228 230 233 236 237 235 232 228 225 223 222 221 221 221 221 222 223 224 224 223 220 219 221 226
256 261 264 265 267 271 273 270 267 264 262 260 260 262 264 265 265 266 266 267 267 268 269 269 268 266 263 260 258 257 255 253 251 249 246 243 240 236 233 232 232 233 230 228 227 228 229 230 230 229 229 230 231 231 231 231 229 225 222 221 224 228 231 233 235 237 238 236 232 228 227 226 225 225 225 225 225 226 227 228 228 228 228 227 226 227
257 263 267 266 264 263 263 262 260 257 257 258 259 260 260 260 260 260 259 259 260 261 263 264 264 262 260 257 255 254 254 254 253 252 250 246 242 238 236 234 233 232 231 230 229 229 230 232 234 233 232 233 236 238 238 236 233 228 224 222 225 230 233 234 235 236 235 233 231 228 228 228 228 229 229 229 230 230 231 232 233 233 233 233 232 232
255 263 270 268 261 255 252 253 256 258 262 265 265 264 263 261 259 257 256 256 256 257 259 261 261 261 259 257 254 252 251 251 252 252 251 249 246 242 239 237 236 235 234 234 234 233 233 234 236 237 236 236 238 242 245 243 240 235 230 228 229 233 237 235 234 233 231 230 229 229 229 231 233 234 235 235 235 235 235 235 235 236 236 236 236 236
266 275 281 279 270 262 258 259 261 264 267 270 272 272 270 266 262 259 257 256 256 256 258 259 260 261 261 259 256 252 250 249 249 250 250 250 249 247 244 241 239 238 238 239 239 239 238 238 239 240 241 241 242 243 246 245 243 241 237 233 225 220 223 229 229 228 227 228 229 231 233 236 239 240 241 241 240 239 238 238 237 237 238 238 239 239
273 279 284 285 283 279 274 270 268 268 269 270 273 275 275 272 268 264 260 258 257 257 257 257 259 260 259 258 257 254 251 249 248 248 248 249 250 250 249 248 245 243 242 242 243 243 244 244 244 244 244 245 245 246 246 246 245 243 240 236 227 221 220 225 226 224 224 226 229 233 236 239 242 244 244 244 243 242 240 240 239 239 239 240 240 241
273 277 281 284 285 283 279 276 274 273 270 270 272 275 275 274 272 268 264 261 260 258 257 256 256 256 256 256 255 254 252 250 248 247 247 248 249 251 251 252 251 249 247 246 245 245 245 246 247 248 248 247 247 246 245 245 245 245 243 240 236 232 230 231 231 229 227 228 231 234 237 241 243 245 245 244 243 242 241 241 240 240 240 241 242 242
272 275 277 281 284 284 283 282 279 275 272 272 273 275 275 274 273 270 268 265 262 260 258 255 253 249 248 250 251 251 250 250 249 248 246 247 248 250 252 253 253 252 251 250 249 247 246 246 246 248 250 249 249 247 245 244 243 243 244 243 241 239 237 238 237 237 236 236 238 239 242 244 246 248 248 247 246 245 244 242 241 241 241 242 242 243
272 273 276 279 281 282 282 280 277 274 271 272 273 274 275 274 272 269 268 267 265 262 258 255 251 248 245 246 246 245 243 245 248 251 251 249 248 248 250 252 254 254 254 253 251 250 249 248 248 247 246 246 246 247 247 245 242 241 241 242 242 241 241 242 242 241 241 241 243 244 246 248 250 251 251 251 251 249 247 245 243 242 242 242 243 244
271 272 273 275 277 277 276 275 273 271 270 270 272 274 274 272 270 268 267 267 266 264 259 255 252 249 248 248 247 246 244 243 245 250 254 253 250 249 250 251 253 255 256 255 254 252 251 249 248 246 244 241 240 243 245 244 243 241 241 241 241 241 242 244 245 245 245 245 245 246 248 249 250 250 251 253 253 253 251 248 245 243 242 242 243 245
269 269 271 272 273 273 272 272 272 271 270 271 272 273 274 273 270 268 267 268 268 265 261 256 252 249 248 248 249 249 247 245 245 247 250 251 251 250 250 252 254 256 257 258 257 256 255 253 250 247 245 242 240 240 243 244 244 243 242 242 241 241 243 245 248 249 249 249 248 248 248 249 250 249 249 250 251 253 254 251 248 245 242 242 243 245
269 269 269 269 269 268 269 271 271 270 270 271 272 273 274 275 272 270 269 268 267 265 262 258 254 250 248 249 250 249 247 245 244 244 245 247 248 248 249 250 252 254 257 259 261 261 261 262 259 255 250 246 243 240 240 242 244 245 244 244 243 242 243 245 248 250 251 252 251 250 249 249 249 249 247 247 248 252 254 255 253 249 245 243 243 246
271 271 271 269 268 268 269 270 270 269 270 270 271 272 273 274 273 271 269 268 266 264 262 259 255 250 247 248 249 248 247 245 244 243 244 246 247 246 247 248 248 247 248 252 257 261 266 268 268 265 260 254 248 244 240 238 239 241 242 244 244 243 243 244 246 249 251 252 253 252 250 248 246 245 243 242 244 248 253 255 256 254 251 247 246 247
Height
811 811 812 812 813 813 813 814 814 813 813 813 813 813 814 815 815 816 817 817 818 818 819 819 820 820 821 821 821 821 821 821 822 822 822 823 823 824 824 825 825 825 825 825 826 826 827 827 827 828 828 828 829 829 830 830 831 831 832 833 833 834 834 835 835 835 835 836 837 837 838 838 838 838 839 839 839 839 840 840 840 840 840 840 841 841
809 810 810 810 811 811 811 811 812 811 811 812 812 813 813 814 814 815 815 816 817 817 818 818 819 820 820 820 820 820 820 820 821 821 822 822 823 823 824 824 824 825 825 825 825 826 826 827 827 827 828 828 829 829 830 830 831 831 832 833 833 834 834 835 835 835 835 836 836 837 837 837 837 838 838 838 839 839 839 840 840 840 840 840 840 841
808 808 809 809 810 810 810 810 810 810 811 811 811 811 812 813 813 814 815 815 816 816 817 817 818 819 819 819 819 819 820 820 820 820 821 821 822 822 823 823 824 824 824 825 825 825 826 827 827 827 828 828 828 829 829 830 830 831 832 832 833 833 834 834 834 834 835 835 835 836 836 836 837 837 838 838 838 839 839 839 839 839 840 840 840 840
807 807 807 808 808 809 809 809 809 809 810 810 810 810 811 812 812 813 814 814 815 815 816 816 817 818 818 818 819 819 819 819 820 820 820 821 821 822 822 823 823 824 824 824 825 825 826 826 827 827 828 828 828 829 829 830 830 830 831 832 832 832 832 833 833 833 833 834 834 835 835 836 836 837 837 837 838 838 838 838 839 839 839 839 840 840
805 806 806 807 807 807 807 807 808 808 808 809 809 809 810 811 811 812 812 813 814 815 815 815 816 816 817 818 818 818 819 819 819 819 820 820 821 821 822 822 823 823 824 824 825 825 825 826 826 827 827 828 828 828 829 829 830 830 830 831 831 831 832 832 832 833 833 833 834 834 835 835 836 836 836 837 837 837 838 838 838 838 839 839 839 840
805 805 805 805 805 806 806 806 806 807 807 807 808 809 809 810 810 811 811 812 813 814 814 815 815 815 816 817 817 818 818 818 819 819 819 820 820 821 821 822 822 823 823 824 824 825 825 825 826 827 827 828 828 828 828 829 829 830 830 830 830 831 831 831 832 832 833 833 834 834 834 835 835 835 835 836 836 837 837 837 838 838 838 839 839 839
804 804 804 805 805 805 805 805 805 806 806 807 807 808 808 809 809 810 810 811 812 813 813 814 814 815 815 816 817 817 818 818 818 819 819 820 820 820 821 822 822 823 823 824 824 824 825 825 826 826 827 828 828 828 828 829 829 830 830 830 830 830 830 831 831 832 832 833 833 833 834 834 834 835 835 835 835 836 836 837 837 838 838 838 838 839
803 803 804 804 804 804 805 805 805 805 806 806 806 807 807 808 808 809 810 810 811 812 812 813 814 814 815 815 816 816 817 817 818 818 819 819 820 820 821 821 822 822 823 823 824 824 824 825 825 826 827 827 827 828 828 829 829 829 830 830 830 830 830 830 831 831 832 832 832 833 833 833 834 834 834 835 835 835 836 836 836 837 837 838 838 838
803 803 803 803 803 804 804 804 804 805 805 806 806 806 806 807 807 808 809 810 810 811 812 812 813 813 814 815 815 816 816 817 817 818 818 819 820 820 821 821 822 822 823 823 824 824 824 825 825 826 826 827 827 828 828 828 829 829 829 829 829 830 830 830 830 831 831 831 832 832 833 833 833 834 834 834 835 835 835 835 836 836 837 837 837 838
802 802 802 802 803 803 803 803 803 804 805 805 805 805 805 806 806 807 808 809 809 810 811 811 812 812 813 814 815 815 815 816 817 817 818 819 819 820 821 821 822 822 823 823 823 824 824 825 825 825 826 826 827 827 827 828 828 828 829 829 829 829 830 830 830 830 831 831 831 832 832 832 832 833 833 833 834 834 834 835 835 835 835 836 836 837
801 801 801 802 802 802 802 802 802 803 804 804 804 805 805 805 805 806 807 808 808 809 810 810 811 811 812 813 814 814 815 815 816 816 817 818 819 820 820 821 821 822 823 823 823 824 824 824 825 825 825 826 826 827 827 827 827 828 828 829 829 829 829 830 830 830 830 830 831 831 831 831 832 832 832 833 833 833 833 834 834 834 835 835 835 836
801 800 801 801 801 801 802 802 802 802 803 804 804 804 804 804 804 805 806 806 807 808 809 810 810 811 811 812 813 814 814 815 815 816 816 817 818 819 820 820 821 821 822 823 823 823 824 824 824 825 825 825 825 826 826 826 827 827 828 828 828 829 829 829 829 830 830 830 830 830 830 831 831 831 831 832 832 832 832 833 833 833 834 834 835 835
800 800 800 800 800 801 801 801 801 802 802 802 803 803 803 803 803 804 805 805 806 807 808 809 810 810 811 812 812 813 814 815 815 816 816 817 818 819 819 820 820 821 822 822 823 823 823 823 823 824 824 825 825 825 825 826 826 827 827 828 828 828 828 829 829 829 829 829 829 830 830 830 830 830 831 831 831 831 831 831 832 832 832 833 833 834
799 799 799 800 800 800 800 800 800 801 801 801 801 801 801 802 803 804 805 805 806 806 808 808 809 810 811 811 812 813 813 814 815 815 816 817 818 818 819 820 820 820 821 822 822 822 823 823 823 823 823 824 824 825 825 825 826 826 827 827 827 827 828 828 828 828 828 828 829 829 829 829 829 830 830 830 830 830 830 830 831 831 831 832 833 833
798 799 799 799 799 799 799 799 800 800 800 800 800 800 801 801 802 804 805 805 805 806 808 808 809 810 810 811 812 812 813 814 814 815 816 816 817 818 818 819 820 820 821 821 822 822 822 822 823 823 823 823 824 824 825 825 825 826 826 826 826 827 827 827 827 827 828 828 828 828 828 828 829 829 829 829 829 829 830 830 830 830 831 831 832 832
798 798 798 798 798 798 798 799 799 799 799 800 800 800 801 801 802 803 804 804 805 806 807 808 809 810 810 811 811 812 812 813 814 814 815 816 816 817 818 818 819 819 820 820 821 821 822 822 822 822 822 823 823 824 824 825 825 825 825 826 826 826 826 826 826 827 827 827 827 827 827 828 828 828 828 828 828 829 829 829 829 830 830 830 831 832
797 797 797 797 797 797 798 798 798 799 799 799 800 800 800 801 801 802 803 804 805 806 807 808 809 810 810 810 810 811 812 812 813 814 814 815 816 816 817 818 818 819 819 820 820 820 821 821 821 822 822 822 823 823 824 824 824 825 825 825 825 825 825 826 826 826 826 826 827 827 827 827 827 827 827 828 828 828 828 828 829 829 830 830 831 831
796 796 797 797 797 797 797 797 798 798 798 799 799 799 800 800 801 802 802 803 804 805 806 807 808 808 809 809 810 810 810 811 812 813 814 814 815 815 816 817 817 818 818 819 819 820 820 820 820 821 821 822 822 822 823 823 823 824 824 824 824 825 825 825 825 825 825 826 826 826 826 826 826 826 827 827 827 827 828 828 828 829 829 830 830 831
796 796 796 796 796 796 796 797 797 797 797 798 798 799 800 800 801 801 802 803 803 804 805 806 807 807 807 808 808 809 810 811 811 812 813 813 814 815 815 816 816 817 818 818 818 819 819 819 820 820 820 821 821 822 822 822 822 823 823 823 823 824 824 824 824 824 825 825 825 825 825 825 826 826 826 826 826 827 827 828 828 829 829 830 830 830
795 796 796 796 796 796 796 796 796 796 797 797 798 798 799 800 800 801 801 802 803 804 804 805 805 806 807 807 807 808 809 810 811 811 811 812 813 813 814 815 815 816 817 817 817 818 818 818 819 819 820 820 820 821 821 821 821 822 822 822 822 822 823 823 823 823 824 824 824 825 825 825 825 825 825 826 826 826 827 827 828 828 829 829 830 830
795 795 795 795 796 796 796 796 796 796 796 797 797 798 798 799 800 800 801 801 802 803 804 804 805 805 806 807 807 808 808 809 810 810 810 811 812 812 813 814 815 815 815 816 816 817 817 817 818 818 819 819 819 820 820 820 820 820 821 821 821 821 821 822 822 822 823 823 823 824 824 824 824 825 825 825 825 826 826 827 827 828 828 829 829 830
795 795 795 795 795 795 795 795 795 796 796 796 796 797 797 798 799 799 800 801 802 802 803 804 804 805 805 806 807 807 808 808 809 809 810 810 811 811 812 813 813 814 814 815 815 816 816 816 817 817 817 818 818 818 819 819 819 820 820 820 820 820 820 821 821 821 822 822 822 823 823 823 824 824 824 825 825 825 825 826 827 827 828 828 829 829
795 794 794 794 795 795 795 795 795 795 795 795 796 796 797 797 798 799 799 800 801 802 802 803 803 804 805 805 806 806 807 807 808 809 809 810 810 810 810 811 812 813 813 814 815 815 815 815 816 816 816 817 817 817 818 818 818 818 819 819 819 819 819 820 820 820 821 821 821 822 822 823 823 823 824 824 824 824 825 825 826 826 827 827 828 829
794 794 794 794 794 794 794 794 794 795 795 795 795 796 796 797 797 798 799 800 800 801 801 802 803 804 804 805 805 805 806 807 807 808 808 809 809 809 810 810 811 811 812 813 813 814 814 814 815 815 815 815 816 816 816 817 817 817 817 818 818 818 818 819 819 819 820 820 820 821 821 822 822 822 823 823 823 824 824 825 825 826 826 827 827 828
794 794 794 794 794 794 794 794 794 794 794 795 795 795 796 796 797 798 798 799 800 800 801 802 803 803 803 804 804 805 805 806 806 807 808 808 808 809 809 810 810 810 811 811 812 813 813 813 813 814 814 814 814 815 815 815 815 816 816 816 817 817 817 817 818 818 819 819 820 820 820 821 821 822 822 822 823 823 823 824 824 825 825 826 826 827
795 794 794 794 794 794 794 794 794 794 794 795 795 795 795 796 797 797 798 799 799 800 801 802 802 802 802 803 803 804 805 805 806 806 807 807 808 808 808 808 809 810 810 810 811 811 812 812 812 812 812 813 813 813 814 814 814 815 815 815 815 816 816 816 817 817 818 818 819 819 820 820 820 821 821 821 822 822 822 823 824 824 825 825 826 826
795 795 794 794 794 794 794 794 794 794 794 795 795 795 795 796 796 797 797 798 798 799 800 801 801 801 802 802 803 803 804 805 805 806 806 807 807 807 807 807 808 809 809 810 810 810 810 810 810 811 811 811 811 812 812 813 813 813 814 814 814 815 815 815 816 816 817 817 818 818 819 819 820 820 820 821 821 821 822 822 823 823 824 824 825 825
795 795 794 794 794 794 794 794 794 794 795 795 795 795 795 796 796 796 797 797 798 799 799 800 800 801 801 802 802 803 803 804 805 805 806 806 806 806 806 806 807 808 808 809 809 809 809 809 809 809 810 810 810 810 811 811 811 812 812 812 813 813 814 814 815 815 816 816 817 817 818 818 819 819 820 820 820 821 821 821 822 823 823 824 824 825
795 795 795 794 794 794 794 794 795 795 795 795 795 795 795 796 796 797 797 797 798 798 799 799 800 800 801 801 802 802 803 803 804 804 805 806 806 805 805 806 806 807 808 808 808 808 808 807 807 808 808 808 809 809 809 810 810 810 811 811 812 812 813 813 814 815 815 815 816 816 817 817 818 818 819 819 820 820 820 821 821 822 823 823 823 824
795 795 795 794 794 794 794 794 795 795 795 795 795 795 796 796 796 797 797 797 798 798 798 799 799 800 800 801 802 802 802 802 802 803 804 805 805 804 805 805 806 806 807 808 808 807 806 805 805 806 806 806 807 808 808 809 809 809 810 810 811 811 812 812 813 814 814 815 815 815 816 816 817 817 818 818 819 819 820 820 821 821 822 822 823 823
795 795 795 794 794 794 794 795 795 795 795 795 795 796 796 796 796 797 797 797 798 798 798 798 799 799 800 800 801 801 801 800 801 802 803 803 803 803 804 805 805 805 806 807 807 806 805 804 804 804 805 805 806 806 807 807 808 808 809 809 810 810 811 811 812 812 813 814 814 815 815 815 816 816 817 817 818 819 819 820 820 821 821 821 822 822
795 795 795 795 794 795 795 795 795 795 795 795 796 796 796 796 797 797 797 797 798 798 798 798 798 799 799 800 800 800 800 800 800 801 802 802 803 803 803 804 804 805 805 806 806 805 804 804 804 804 804 804 805 805 805 806 807 807 808 808 809 809 810 810 811 811 812 812 813 813 814 815 815 815 816 817 817 818 818 819 820 820 820 820 821 822
795 795 795 795 795 795 795 795 795 795 795 796 796 796 796 797 797 797 797 797 798 798 798 798 799 799 799 799 799 799 800 800 800 800 801 802 802 802 802 803 803 804 804 805 805 805 804 804 803 803 803 804 804 804 805 805 806 806 807 807 808 808 809 810 810 811 811 811 812 812 813 814 814 815 815 816 816 817 818 818 819 819 819 820 820 821
795 795 795 795 795 795 795 795 795 795 795 796 796 796 796 797 797 797 797 797 798 798 798 798 798 798 799 799 799 799 800 800 800 800 800 801 801 801 801 802 802 803 803 803 804 804 804 803 803 803 803 803 803 803 804 804 805 805 806 806 807 808 808 809 810 810 810 811 811 811 812 812 813 814 814 815 816 816 817 817 818 819 819 819 820 820
795 795 795 795 795 795 795 795 795 795 796 796 796 796 796 796 797 797 797 797 797 798 798 798 798 798 798 798 798 799 799 799 799 799 800 800 800 800 800 801 801 801 802 802 803 803 803 803 803 803 803 803 803 803 803 804 804 805 805 806 806 807 807 808 809 809 810 810 810 811 811 812 812 813 813 814 815 815 816 816 817 818 818 818 819 819
795 795 795 795 795 795 795 795 795 795 795 796 796 796 796 796 796 796 796 797 797 797 797 797 797 797 798 798 798 798 798 798 798 798 799 799 799 800 800 800 800 800 801 801 802 802 802 802 802 802 802 802 802 802 802 803 804 804 805 805 805 806 807 807 808 808 809 809 810 810 810 811 811 812 813 813 814 814 815 815 816 817 818 817 818 818
794 794 795 795 795 795 795 795 795 795 795 795 796 796 796 796 796 796 796 796 796 796 796 796 796 797 797 797 797 797 797 797 797 798 798 798 798 799 799 799 799 800 800 800 800 801 801 801 801 801 802 802 802 802 802 802 803 803 804 804 805 805 806 806 807 807 808 808 809 809 810 810 810 811 812 812 813 813 814 814 815 815 816 816 817 817
794 794 794 794 795 795 795 795 795 795 795 795 795 795 795 795 795 795 795 795 795 795 795 796 796 796 796 796 796 796 796 796 796 797 797 797 798 798 798 798 799 799 799 799 800 800 800 800 801 801 801 801 801 801 801 801 802 802 803 804 804 805 805 805 806 806 807 807 807 808 808 809 810 810 810 811 812 812 813 813 814 814 815 815 815 816
794 794 794 794 794 794 794 794 795 795 795 795 795 795 795 795 795 795 795 795 795 795 795 795 795 795 795 795 795 795 795 795 796 796 796 796 797 797 797 797 798 798 798 799 799 800 800 800 800 800 800 800 800 800 800 801 801 801 802 803 803 804 804 804 805 805 805 806 806 807 807 808 808 809 809 810 810 811 812 812 813 813 814 814 815 815
793 793 793 793 794 794 794 794 794 794 794 794 794 794 794 794 794 794 794 794 794 794 794 794 794 794 795 795 795 795 795 795 795 795 795 795 796 796 796 797 797 797 798 798 798 799 799 799 799 799 799 799 800 800 800 800 800 801 801 802 802 802 802 803 804 804 804 805 805 805 806 806 807 808 808 809 809 810 810 811 811 812 812 813 814 814
793 793 793 793 793 793 793 793 793 793 793 793 794 794 794 794 794 794 794 794 794 793 793 793 794 794 794 794 794 794 794 794 794 794 795 795 795 795 795 796 796 796 797 797 797 798 798 798 798 798 799 799 799 799 799 800 800 800 801 801 801 801 801 802 802 803 803 804 804 805 805 805 806 806 807 807 808 808 809 809 810 810 811 811 812 812
792 792 792 792 792 792 793 793 793 793 793 793 793 793 793 793 793 793 793 793 793 793 793 793 793 793 793 793 793 793 793 793 793 794 794 794 794 795 795 795 795 795 796 796 796 797 797 797 797 797 798 798 798 799 799 799 799 800 800 800 800 800 801 801 801 801 802 802 803 803 804 804 805 805 805 806 806 807 807 808 808 809 809 809 810 810
791 791 791 791 792 792 792 792 792 792 792 792 792 792 792 792 792 792 792 792 792 792 792 792 792 792 792 792 792 792 792 792 792 793 793 793 793 794 794 794 795 795 795 795 795 795 796 796 796 796 796 797 798 798 798 798 798 799 799 799 800 800 800 799 799 800 800 801 802 802 803 803 803 804 804 805 805 805 805 806 806 807 807 807 808 808
790 790 790 791 791 791 791 791 791 791 791 791 791 791 791 791 791 791 791 791 791 791 791 791 791 791 791 790 790 791 791 791 791 792 792 792 792 793 793 793 793 794 794 794 794 794 795 795 795 795 795 796 796 797 797 797 797 797 798 798 798 799 798 798 798 799 800 800 800 801 801 802 802 803 803 803 803 803 804 804 804 805 805 805 806 806
789 789 789 790 790 790 790 790 790 790 790 790 790 790 790 790 790 790 790 790 790 790 790 790 790 790 790 789 789 790 790 790 790 790 791 791 791 791 792 792 792 792 793 793 793 793 793 794 793 793 794 795 795 795 795 795 796 796 796 796 797 797 797 797 798 798 799 799 799 800 800 801 801 801 801 801 801 802 802 802 802 803 803 803 804 804
788 788 788 788 789 789 789 789 789 789 789 789 790 790 790 790 790 789 789 789 789 789 789 789 789 789 788 788 788 788 788 789 789 789 789 790 790 790 790 791 791 791 791 791 791 792 792 792 792 792 793 793 793 793 793 794 794 794 795 795 795 795 795 796 796 796 797 798 798 798 799 799 800 800 800 800 800 800 800 800 800 801 801 801 802 802
787 787 787 787 787 787 788 788 788 788 788 788 788 788 788 788 788 788 788 788 788 788 788 788 788 787 787 787 787 787 787 787 787 787 788 788 789 789 789 789 790 790 790 790 790 790 790 790 790 791 791 791 791 791 791 791 792 792 792 793 793 794 794 794 794 794 795 796 796 797 797 798 798 798 798 798 798 798 798 799 799 799 799 800 800 800
785 785 785 785 786 786 786 786 786 786 786 786 786 787 787 787 787 787 787 787 787 787 787 786 786 786 786 785 785 786 786 786 786 786 786 787 787 788 788 788 788 788 788 788 788 788 788 788 789 789 789 790 790 789 789 789 790 790 790 791 791 791 791 791 792 792 793 794 794 795 795 796 796 797 797 797 797 796 796 796 797 797 797 798 798 798
784 784 784 784 784 784 784 784 785 785 785 785 785 785 785 785 785 786 785 786 786 786 785 785 785 785 785 784 784 785 785 785 785 785 785 786 786 786 787 787 787 787 787 787 787 787 787 786 786 786 786 787 787 787 787 787 787 788 788 788 789 789 789 789 790 790 791 791 792 793 793 794 795 795 795 795 795 794 794 794 795 795 795 796 796 796
782 782 782 783 783 783 783 783 783 783 783 783 783 783 783 784 784 784 784 784 784 784 784 784 784 784 783 783 783 783 783 783 784 784 784 784 785 785 785 785 785 786 786 786 786 786 785 785 784 783 783 783 784 785 785 785 785 786 786 786 786 786 787 787 787 788 788 789 790 790 791 792 792 793 793 794 793 792 792 792 792 792 793 794 794 794
780 781 781 781 781 781 781 781 781 781 781 781 781 782 782 782 782 782 782 782 782 782 782 782 782 782 782 782 781 781 782 782 782 782 782 782 783 783 784 784 784 785 785 785 785 785 785 784 783 781 780 780 780 781 782 783 783 784 784 783 783 784 785 785 785 786 786 787 787 788 789 790 790 790 791 791 791 791 790 790 790 790 790 791 792 792